STARLINK-30924, 58412

Orbit data source: Space-Track

STARLINK-30924, 58412 is a payload satellite owned by SpaceX/Seattle (US) in LEO that was launched on Wed, 22 Nov 2023 UTC via an FALCON 9 launch vehicle from the Air Force Eastern Test Range (AFETR). Payload-class satellites include a variety of spacecraft equipped with specific instruments for various scientific and technological missions. These include communications satellites like Starlink; space stations such as the ISS; scientific satellites like the Hubble; Earth observation satellites from companies like Planet Labs, Umbra, and HawkEye 360; GPS; miniature CubeSats for education and research; and military/defense satellites.

Loading next visibility...
Identifier
58412, 2023-180L
Orbit
LEO
Country
Flag of USUS
Related business
Manufacturer
SpaceX/Seattle
Mission
Operational Commercial Communications
Bus & Motor
STARLINK V2M, Unknown motor
Mass
730 kg wet, ~700 kg dry
Launch date (UTC)
2023-11-22 (2 years ago)
Launch vehicle
FALCON 9
Launch site
Air Force Eastern Test Range (AFETR)
Object type
Payload
Rocket body
Debris
Shape & HBR
Box + 2 Pan, 14.5 m
Radar Cross Section
33.884 m², Large (>1 m²)

Expand to show TLE details & history
Last TLE update: 13 hours ago

TLE from 13 hours ago
0 STARLINK-30924
1 58412U 23180L   25250.27761081  .00004995  00000-0  19087-3 0  9995
2 58412  42.9980 223.0362 0000893 272.6952  87.3798 15.27589108101285
Epoch: 2025-09-07T06:39Z
TLE epoch observation values (Epoch: 2025-09-07T06:39:45.573Z)
Latitude
Longitude
136.49693°
Altitude
482.769 km
Speed
7.626 km/s
True Right ascension
14h 52m 08s
True Declination
0° 00' 00"
Sunlit
Object was in daylight at epoch
Visualization orbit readout
Latitude
Unknown
Longitude
Unknown
Altitude
Unknown
Speed
Unknown
Apparent Right ascension
Unknown
Apparent Declination
Unknown
Sunlit
N/A
Visualization observer readout
Local Sidereal Time
11:48:39
Azimuth
Unknown
Elevation
Unknown
Doppler factor
Unknown
Orbital elements
Apogee altitude
485.58 km
Perigee altitude
484.354 km
Semi-major axis
6,863.104 km
Eccentricity
0.00009
Inclination
42.998°
RAAN
223.0362°
Arg. of periapsis
272.6952°
True anomaly
87.39002°
Mean anomaly
87.3798°
Eccentric anomaly
87.38491°
Mean motion
3.81735 °/min
Orbital period
94.31 mins
BSTAR
0.00019087
Loading maneuver chart data...
Computing Atmospheric mass density...
Loading historical data...
Loading historical data...
Loading historical data...
Loading historical data...
Loading historical data...
Loading historical data...
Loading historical data...

Documentation

Showing up to 5 results
|